| time (UTC) | temp F | wind direction | speed knots | gust knots | rain 1hr in | rain 24hr in | rain mn in | humidity % | barometer mb |
| 20260502194636 | 60 | 212 | 4.3 | 7.0 | 0.00 | 0.01 | 0.01 | 62 | 1010.9 |
| 20260502194132 | 59 | 216 | 1.7 | 6.1 | 0.00 | 0.01 | 0.01 | 62 | 1010.9 |
| 20260502193629 | 59 | 221 | 3.5 | 8.7 | 0.00 | 0.01 | 0.01 | 63 | 1011.1 |
| 20260502193126 | 60 | 219 | 2.6 | 7.8 | 0.00 | 0.01 | 0.01 | 62 | 1011.1 |
| 20260502192621 | 60 | 217 | 4.3 | 7.0 | 0.00 | 0.01 | 0.01 | 61 | 1011.2 |
| 20260502192119 | 59 | 226 | 5.2 | 7.8 | 0.00 | 0.01 | 0.01 | 61 | 1011.3 |
| 20260502191616 | 59 | 219 | 2.6 | 8.7 | 0.00 | 0.01 | 0.01 | 63 | 1011.4 |
| 20260502191113 | 59 | 232 | 5.2 | 7.8 | 0.00 | 0.01 | 0.01 | 63 | 1011.4 |
| 20260502190611 | 59 | 250 | 3.5 | 5.2 | 0.00 | 0.01 | 0.01 | 65 | 1011.4 |
| 20260502190108 | 59 | 239 | 3.5 | 7.0 | 0.00 | 0.01 | 0.01 | 65 | 1011.4 |
| 20260502185602 | 59 | 220 | 3.5 | 6.1 | 0.00 | 0.01 | 0.01 | 65 | 1011.6 |
| 20260502185100 | 59 | 217 | 4.3 | 8.7 | 0.00 | 0.01 | 0.01 | 67 | 1011.7 |
| 20260502184556 | 57 | 205 | 3.5 | 6.1 | 0.00 | 0.01 | 0.01 | 73 | 1011.6 |
| 20260502184051 | 57 | 215 | 4.3 | 7.0 | 0.00 | 0.01 | 0.01 | 73 | 1011.6 |
| 20260502183548 | 57 | 213 | 2.6 | 7.0 | 0.00 | 0.01 | 0.01 | 71 | 1011.8 |
| 20260502183044 | 57 | 209 | 4.3 | 8.7 | 0.00 | 0.01 | 0.01 | 73 | 1011.9 |
| 20260502182539 | 57 | 211 | 5.2 | 7.8 | 0.00 | 0.01 | 0.01 | 73 | 1011.9 |
| 20260502182036 | 57 | 218 | 6.1 | 7.8 | 0.00 | 0.01 | 0.01 | 74 | 1012.0 |
| 20260502181534 | 58 | 230 | 6.1 | 7.8 | 0.00 | 0.01 | 0.01 | 74 | 1011.9 |
| 20260502181032 | 58 | 221 | 5.2 | 7.0 | 0.00 | 0.01 | 0.01 | 77 | 1012.0 |
| 20260502180529 | 57 | 212 | 5.2 | 7.8 | 0.00 | 0.01 | 0.01 | 78 | 1012.1 |
| 20260502170448 | 55 | 215 | 5.2 | 6.1 | 0.00 | 0.01 | 0.01 | 82 | 1012.4 |
| 20260502163931 | 54 | 215 | 5.2 | 6.1 | 0.00 | 0.01 | 0.01 | 84 | 1012.7 |
| 20260502163427 | 54 | 216 | 4.3 | 7.8 | 0.00 | 0.01 | 0.01 | 84 | 1012.5 |
| 20260502162925 | 54 | 214 | 3.5 | 8.7 | 0.00 | 0.01 | 0.01 | 85 | 1012.8 |
| 20260502162422 | 54 | 203 | 5.2 | 7.8 | 0.00 | 0.01 | 0.01 | 84 | 1012.7 |
| 20260502161919 | 54 | 208 | 5.2 | 9.6 | 0.00 | 0.01 | 0.01 | 84 | 1012.6 |
| 20260502161415 | 55 | 216 | 3.5 | 7.8 | 0.00 | 0.01 | 0.01 | 84 | 1012.7 |
| 20260502160913 | 54 | 198 | 4.3 | 6.1 | 0.00 | 0.01 | 0.01 | 85 | 1012.6 |
| 20260502160411 | 54 | 216 | 4.3 | 7.0 | 0.00 | 0.01 | 0.01 | 85 | 1012.7 |
| 20260502152340 | 53 | 208 | 3.5 | 3.5 | 0.00 | 0.01 | 0.01 | 86 | 1012.7 |
| 20260502151838 | 53 | 206 | 3.5 | 5.2 | 0.00 | 0.01 | 0.01 | 86 | 1012.8 |
| 20260502151334 | 53 | 210 | 2.6 | 3.5 | 0.00 | 0.01 | 0.01 | 86 | 1012.8 |
| 20260502150832 | 53 | 208 | 1.7 | 3.5 | 0.00 | 0.01 | 0.01 | 86 | 1012.9 |
| 20260502150328 | 53 | 208 | 4.3 | 5.2 | 0.00 | 0.01 | 0.01 | 86 | 1012.8 |
| 20260502130716 | 53 | 223 | 2.6 | 2.6 | 0.00 | 0.01 | 0.01 | 91 | 1013.0 |
| 20260502130214 | 52 | 202 | 0.9 | 0.9 | 0.00 | 0.01 | 0.01 | 92 | 1013.2 |
| 20260502123700 | 52 | 230 | 1.7 | 2.6 | 0.00 | 0.01 | 0.01 | 93 | 1012.8 |
| 20260502123156 | 52 | 213 | 0.0 | 0.9 | 0.00 | 0.01 | 0.01 | 93 | 1012.9 |
| 20260502122653 | 52 | 214 | 0.9 | 1.7 | 0.00 | 0.01 | 0.01 | 93 | 1012.9 |
| 20260502122149 | 51 | 212 | 0.0 | 0.9 | 0.00 | 0.01 | 0.01 | 93 | 1013.0 |
| 20260502121648 | 51 | 217 | 1.7 | 3.5 | 0.00 | 0.01 | 0.01 | 93 | 1013.1 |
| 20260502121145 | 51 | 229 | 0.9 | 1.7 | 0.00 | 0.01 | 0.01 | 93 | 1013.0 |
| 20260502120641 | 52 | 214 | 0.0 | 0.9 | 0.00 | 0.01 | 0.01 | 93 | 1013.0 |
| 20260502120138 | 51 | 212 | 0.9 | 3.5 | 0.00 | 0.01 | 0.01 | 93 | 1013.0 |
| 20260502115636 | 51 | 214 | 2.6 | 3.5 | 0.00 | 0.01 | 0.01 | 93 | 1013.0 |
| 20260502115131 | 51 | 211 | 1.7 | 3.5 | 0.00 | 0.01 | 0.01 | 93 | 1013.0 |
| 20260502114627 | 51 | 212 | 1.7 | 3.5 | 0.00 | 0.01 | 0.01 | 93 | 1013.2 |
| 20260502114126 | 51 | 214 | 2.6 | 3.5 | 0.00 | 0.01 | 0.01 | 93 | 1013.1 |
| 20260502113623 | 51 | 218 | 3.5 | 5.2 | 0.00 | 0.01 | 0.01 | 93 | 1013.0 |
| 20260502113121 | 51 | 221 | 1.7 | 3.5 | 0.00 | 0.01 | 0.01 | 93 | 1013.1 |
| 20260502112619 | 51 | 203 | 2.6 | 6.1 | 0.00 | 0.01 | 0.01 | 93 | 1013.1 |
| 20260502112115 | 51 | 216 | 3.5 | 5.2 | 0.00 | 0.01 | 0.01 | 93 | 1012.7 |
| 20260502111613 | 51 | 208 | 4.3 | 7.0 | 0.00 | 0.01 | 0.01 | 93 | 1012.6 |
| 20260502111110 | 51 | 212 | 5.2 | 6.1 | 0.00 | 0.01 | 0.01 | 93 | 1012.7 |
| 20260502110608 | 51 | 206 | 4.3 | 6.1 | 0.00 | 0.01 | 0.01 | 92 | 1012.6 |
| 20260502110105 | 51 | 210 | 3.5 | 5.2 | 0.00 | 0.01 | 0.01 | 92 | 1012.3 |
| 20260502105603 | 51 | 213 | 5.2 | 7.0 | 0.00 | 0.01 | 0.01 | 92 | 1012.5 |
| 20260502105100 | 51 | 207 | 4.3 | 6.1 | 0.00 | 0.01 | 0.01 | 92 | 1012.3 |
| 20260502104556 | 51 | 220 | 1.7 | 5.2 | 0.00 | 0.01 | 0.01 | 92 | 1012.2 |
| 20260502104054 | 51 | 206 | 3.5 | 5.2 | 0.05 | 0.01 | 0.01 | 91 | 1012.3 |
| 20260502103552 | 51 | 213 | 0.9 | 2.6 | 0.05 | 0.01 | 0.01 | 91 | 1012.3 |
| 20260502103050 | 51 | 214 | 0.9 | 3.5 | 0.00 | 0.00 | 0.00 | 91 | 1012.5 |
| 20260502102545 | 51 | 216 | 2.6 | 5.2 | 0.00 | 0.00 | 0.00 | 91 | 1012.5 |
| 20260502102043 | 51 | 209 | 3.5 | 6.1 | 0.00 | 0.00 | 0.00 | 90 | 1012.7 |
| 20260502101541 | 51 | 213 | 2.6 | 3.5 | 0.00 | 0.00 | 0.00 | 90 | 1012.6 |
| 20260502101039 | 51 | 216 | 2.6 | 5.2 | 0.00 | 0.00 | 0.00 | 90 | 1012.6 |
| 20260502100537 | 51 | 214 | 2.6 | 6.1 | 0.00 | 0.00 | 0.00 | 90 | 1012.6 |
| 20260502091512 | 51 | 215 | 6.1 | 9.6 | 0.00 | 0.00 | 0.00 | 90 | 1012.2 |
| 20260502091009 | 51 | 208 | 7.0 | 8.7 | 0.00 | 0.00 | 0.00 | 90 | 1012.4 |
| 20260502090506 | 51 | 209 | 5.2 | 8.7 | 0.00 | 0.00 | 0.00 | 89 | 1012.4 |
| 20260502071400 | 50 | 215 | 7.0 | 8.7 | 0.00 | 0.00 | 0.00 | 92 | 1012.7 |
| 20260502070859 | 50 | 228 | 7.0 | 8.7 | 0.00 | 0.00 | 0.00 | 92 | 1012.6 |
| 20260502070356 | 51 | 195 | 5.2 | 7.8 | 0.00 | 0.00 | 0.00 | 93 | 1012.8 |
| 20260502065855 | 51 | 225 | 5.2 | 7.0 | 0.00 | 0.00 | 0.00 | 93 | 1012.9 |
| 20260502065352 | 51 | 210 | 5.2 | 8.7 | 0.00 | 0.00 | 0.00 | 93 | 1012.8 |
| 20260502064850 | 51 | 217 | 7.0 | 11.3 | 0.00 | 0.00 | 0.00 | 92 | 1012.9 |
| 20260502064348 | 51 | 218 | 3.5 | 7.8 | 0.00 | 0.00 | 0.00 | 92 | 1012.9 |
| 20260502063845 | 51 | 203 | 7.0 | 12.2 | 0.00 | 0.00 | 0.00 | 92 | 1012.9 |
| 20260502063343 | 51 | 212 | 7.0 | 11.3 | 0.00 | 0.00 | 0.00 | 92 | 1012.7 |
| 20260502062840 | 51 | 220 | 6.1 | 12.2 | 0.00 | 0.00 | 0.00 | 92 | 1013.0 |
| 20260502062337 | 51 | 213 | 9.6 | 13.9 | 0.00 | 0.00 | 0.00 | 92 | 1013.0 |
| 20260502061836 | 51 | 218 | 11.3 | 13.9 | 0.00 | 0.00 | 0.00 | 92 | 1012.7 |
| 20260502061333 | 51 | 219 | 11.3 | 13.9 | 0.00 | 0.00 | 0.00 | 91 | 1013.1 |
| 20260502060829 | 51 | 206 | 8.7 | 13.9 | 0.00 | 0.00 | 0.00 | 91 | 1013.2 |
| 20260502060324 | 51 | 224 | 7.8 | 14.8 | 0.00 | 0.00 | 0.00 | 91 | 1013.0 |
| 20260502055822 | 51 | 210 | 13.0 | 15.6 | 0.00 | 0.00 | 0.00 | 90 | 1012.8 |
| 20260502055320 | 51 | 253 | 7.0 | 12.2 | 0.00 | 0.00 | 0.00 | 90 | 1013.1 |
| 20260502054819 | 51 | 212 | 4.3 | 9.6 | 0.00 | 0.00 | 0.00 | 90 | 1013.1 |
| 20260502054316 | 51 | 210 | 6.1 | 11.3 | 0.00 | 0.00 | 0.00 | 89 | 1012.9 |
| 20260502053814 | 51 | 219 | 5.2 | 9.6 | 0.00 | 0.00 | 0.00 | 89 | 1012.8 |
| 20260502053311 | 51 | 232 | 9.6 | 11.3 | 0.00 | 0.00 | 0.00 | 89 | 1012.8 |
| 20260502052809 | 51 | 224 | 9.6 | 12.2 | 0.00 | 0.00 | 0.00 | 88 | 1012.5 |
| 20260502052306 | 51 | 220 | 6.1 | 9.6 | 0.00 | 0.00 | 0.00 | 88 | 1012.7 |
| 20260502051804 | 52 | 208 | 5.2 | 6.1 | 0.00 | 0.00 | 0.00 | 87 | 1012.8 |
| 20260502051302 | 52 | 214 | 4.3 | 6.1 | 0.00 | 0.00 | 0.00 | 87 | 1012.9 |
| 20260502050758 | 52 | 214 | 3.5 | 6.1 | 0.00 | 0.00 | 0.00 | 87 | 1012.8 |
| 20260502050254 | 52 | 209 | 4.3 | 7.8 | 0.00 | 0.00 | 0.00 | 86 | 1013.0 |
| 20260502045752 | 51 | 218 | 4.3 | 8.7 | 0.00 | 0.00 | 0.00 | 86 | 1012.9 |
| 20260502045248 | 51 | 212 | 6.1 | 9.6 | 0.00 | 0.00 | 0.00 | 85 | 1012.8 |
| 20260502044745 | 51 | 211 | 11.3 | 13.9 | 0.00 | 0.00 | 0.00 | 85 | 1012.7 |
| 20260502044241 | 52 | 201 | 11.3 | 13.0 | 0.00 | 0.00 | 0.00 | 85 | 1013.0 |
| 20260502043739 | 52 | 201 | 7.8 | 9.6 | 0.00 | 0.00 | 0.00 | 85 | 1012.8 |
| 20260502043236 | 52 | 207 | 7.0 | 8.7 | 0.00 | 0.00 | 0.00 | 85 | 1012.9 |
| 20260502042736 | 52 | 206 | 8.7 | 9.6 | 0.00 | 0.00 | 0.00 | 85 | 1012.6 |
| 20260502042233 | 52 | 217 | 7.8 | 13.0 | 0.00 | 0.00 | 0.00 | 84 | 1012.8 |
| 20260502041731 | 52 | 197 | 9.6 | 12.2 | 0.00 | 0.00 | 0.00 | 84 | 1012.7 |
| 20260502041228 | 52 | 204 | 11.3 | 13.9 | 0.00 | 0.00 | 0.00 | 84 | 1012.8 |
| 20260502040725 | 52 | 200 | 13.0 | 15.6 | 0.00 | 0.00 | 0.00 | 84 | 1013.1 |
| 20260502040222 | 52 | 192 | 13.0 | 15.6 | 0.00 | 0.00 | 0.00 | 83 | 1013.1 |
| 20260502035718 | 52 | 208 | 14.8 | 18.2 | 0.00 | 0.00 | 0.00 | 83 | 1012.9 |
| 20260502035215 | 52 | 202 | 13.9 | 15.6 | 0.00 | 0.00 | 0.00 | 83 | 1012.8 |
| 20260502034712 | 52 | 197 | 14.8 | 18.2 | 0.00 | 0.00 | 0.00 | 82 | 1012.9 |
| 20260502034210 | 52 | 208 | 13.0 | 16.5 | 0.00 | 0.00 | 0.00 | 81 | 1013.0 |
| 20260502033708 | 52 | 207 | 14.8 | 16.5 | 0.00 | 0.00 | 0.00 | 81 | 1012.7 |
| 20260502033206 | 52 | 204 | 13.9 | 16.5 | 0.00 | 0.00 | 0.00 | 81 | 1012.9 |
| 20260502032702 | 52 | 189 | 15.6 | 19.1 | 0.00 | 0.00 | 0.00 | 81 | 1012.6 |
| 20260502032158 | 52 | 220 | 15.6 | 19.1 | 0.00 | 0.00 | 0.00 | 81 | 1012.7 |
| 20260502031656 | 52 | 204 | 13.9 | 20.0 | 0.00 | 0.00 | 0.00 | 81 | 1012.7 |
| 20260502031154 | 52 | 202 | 14.8 | 18.2 | 0.00 | 0.00 | 0.00 | 81 | 1013.0 |
| 20260502030652 | 52 | 222 | 14.8 | 19.1 | 0.00 | 0.00 | 0.00 | 81 | 1013.0 |
| 20260502030150 | 52 | 227 | 13.0 | 18.2 | 0.00 | 0.00 | 0.00 | 81 | 1013.1 |
| 20260502025647 | 52 | 219 | 15.6 | 20.0 | 0.00 | 0.00 | 0.00 | 82 | 1013.1 |
| 20260502025145 | 52 | 199 | 13.9 | 18.2 | 0.00 | 0.00 | 0.00 | 83 | 1013.2 |
| 20260502024642 | 52 | 201 | 16.5 | 19.1 | 0.00 | 0.00 | 0.00 | 84 | 1013.2 |
| 20260502024140 | 52 | 202 | 18.2 | 20.0 | 0.00 | 0.00 | 0.00 | 84 | 1013.3 |
| 20260502023638 | 52 | 199 | 15.6 | 20.0 | 0.00 | 0.00 | 0.00 | 85 | 1013.0 |
| 20260502023135 | 51 | 206 | 16.5 | 19.1 | 0.00 | 0.00 | 0.00 | 85 | 1013.0 |
| 20260502022632 | 51 | 208 | 13.0 | 20.0 | 0.00 | 0.00 | 0.00 | 86 | 1013.1 |
| 20260502022129 | 51 | 191 | 10.4 | 18.2 | 0.00 | 0.00 | 0.00 | 86 | 1013.1 |
| 20260502021626 | 51 | 203 | 12.2 | 19.1 | 0.00 | 0.00 | 0.00 | 86 | 1013.0 |
| 20260502021123 | 51 | 224 | 10.4 | 19.1 | 0.00 | 0.00 | 0.00 | 86 | 1013.1 |
| 20260502020621 | 51 | 178 | 12.2 | 20.9 | 0.00 | 0.00 | 0.00 | 86 | 1013.1 |
| 20260502020117 | 51 | 191 | 13.0 | 18.2 | 0.00 | 0.00 | 0.00 | 86 | 1013.1 |
| 20260502015615 | 51 | 202 | 12.2 | 20.0 | 0.00 | 0.00 | 0.00 | 86 | 1013.0 |
| 20260502015112 | 51 | 227 | 11.3 | 20.0 | 0.00 | 0.00 | 0.00 | 86 | 1013.2 |
| 20260502014609 | 51 | 195 | 15.6 | 20.9 | 0.00 | 0.00 | 0.00 | 86 | 1013.1 |
| 20260502014106 | 51 | 222 | 8.7 | 20.9 | 0.00 | 0.00 | 0.00 | 86 | 1013.0 |
| 20260502013601 | 51 | 197 | 13.9 | 20.0 | 0.00 | 0.00 | 0.00 | 86 | 1012.9 |
| 20260502013057 | 51 | 231 | 10.4 | 19.1 | 0.00 | 0.00 | 0.00 | 86 | 1013.2 |
| 20260502012555 | 51 | 220 | 10.4 | 19.1 | 0.00 | 0.00 | 0.00 | 86 | 1012.9 |
| 20260502012053 | 51 | 194 | 13.0 | 18.2 | 0.00 | 0.00 | 0.00 | 86 | 1012.8 |
| 20260502011549 | 51 | 204 | 13.0 | 20.9 | 0.00 | 0.00 | 0.00 | 85 | 1012.8 |
| 20260502011045 | 51 | 190 | 15.6 | 21.7 | 0.00 | 0.00 | 0.00 | 85 | 1012.8 |
| 20260502010543 | 51 | 223 | 12.2 | 16.5 | 0.00 | 0.00 | 0.00 | 85 | 1012.7 |
| 20260502010039 | 51 | 196 | 13.0 | 18.2 | 0.00 | 0.00 | 0.00 | 84 | 1012.7 |
| 20260502005537 | 51 | 219 | 9.6 | 19.1 | 0.00 | 0.00 | 0.00 | 84 | 1012.6 |
| 20260502005035 | 52 | 210 | 14.8 | 19.1 | 0.00 | 0.00 | 0.00 | 83 | 1012.7 |
| 20260502004530 | 52 | 213 | 18.2 | 20.9 | 0.00 | 0.00 | 0.00 | 82 | 1012.8 |
| 20260502004027 | 52 | 208 | 14.8 | 18.2 | 0.00 | 0.00 | 0.00 | 81 | 1012.9 |
| 20260502003525 | 52 | 196 | 9.6 | 16.5 | 0.00 | 0.00 | 0.00 | 81 | 1012.6 |
| 20260502003021 | 52 | 177 | 8.7 | 16.5 | 0.00 | 0.00 | 0.00 | 81 | 1012.9 |
| 20260502002518 | 52 | 184 | 14.8 | 19.1 | 0.00 | 0.00 | 0.00 | 81 | 1012.9 |
| 20260502002016 | 52 | 186 | 18.2 | 20.9 | 0.00 | 0.00 | 0.00 | 82 | 1012.7 |
| 20260502001513 | 52 | 194 | 10.4 | 14.8 | 0.00 | 0.00 | 0.00 | 83 | 1012.6 |
| 20260502001010 | 52 | 211 | 11.3 | 15.6 | 0.00 | 0.00 | 0.00 | 83 | 1012.6 |
| 20260502000509 | 52 | 208 | 11.3 | 15.6 | 0.00 | 0.00 | 0.00 | 83 | 1012.4 |
| 20260502000005 | 52 | 210 | 9.6 | 15.6 | 0.00 | 0.00 | 0.00 | 83 | 1012.3 |
| 20260501235501 | 52 | 189 | 10.4 | 13.9 | 0.00 | 0.00 | 0.00 | 83 | 1012.4 |
| 20260501234955 | 52 | 195 | 10.4 | 15.6 | 0.00 | 0.00 | 0.00 | 83 | 1012.1 |
| 20260501234452 | 52 | 188 | 12.2 | 13.9 | 0.00 | 0.00 | 0.00 | 84 | 1012.2 |
| 20260501233951 | 52 | 210 | 11.3 | 15.6 | 0.00 | 0.00 | 0.00 | 83 | 1012.3 |
| 20260501233449 | 52 | 159 | 11.3 | 15.6 | 0.00 | 0.00 | 0.00 | 83 | 1012.2 |
| 20260501232944 | 52 | 225 | 10.4 | 14.8 | 0.00 | 0.00 | 0.00 | 83 | 1012.4 |
| 20260501232442 | 52 | 208 | 8.7 | 14.8 | 0.00 | 0.00 | 0.00 | 82 | 1012.3 |
| 20260501231938 | 52 | 220 | 8.7 | 15.6 | 0.00 | 0.00 | 0.00 | 82 | 1012.3 |
| 20260501231437 | 52 | 174 | 13.0 | 15.6 | 0.00 | 0.00 | 0.00 | 81 | 1012.3 |
| 20260501230935 | 53 | 210 | 9.6 | 15.6 | 0.00 | 0.00 | 0.00 | 81 | 1012.1 |
| 20260501230434 | 53 | 202 | 12.2 | 16.5 | 0.00 | 0.00 | 0.00 | 81 | 1012.1 |
| 20260501225930 | 53 | 205 | 10.4 | 15.6 | 0.00 | 0.00 | 0.00 | 80 | 1012.1 |
| 20260501225428 | 53 | 200 | 8.7 | 13.0 | 0.00 | 0.00 | 0.00 | 80 | 1011.9 |
| 20260501224924 | 53 | 180 | 7.8 | 15.6 | 0.00 | 0.00 | 0.00 | 80 | 1012.0 |
| 20260501224421 | 53 | 180 | 9.6 | 14.8 | 0.00 | 0.00 | 0.00 | 80 | 1012.2 |
| 20260501223918 | 53 | 199 | 11.3 | 15.6 | 0.00 | 0.00 | 0.00 | 80 | 1012.0 |
| 20260501223414 | 53 | 181 | 13.9 | 14.8 | 0.00 | 0.00 | 0.00 | 79 | 1011.9 |
| 20260501222910 | 53 | 172 | 11.3 | 14.8 | 0.00 | 0.00 | 0.00 | 79 | 1012.2 |
| 20260501222408 | 53 | 213 | 11.3 | 16.5 | 0.00 | 0.00 | 0.00 | 79 | 1012.4 |
| 20260501221904 | 53 | 214 | 6.1 | 18.2 | 0.00 | 0.00 | 0.00 | 79 | 1012.2 |
| 20260501221401 | 53 | 200 | 12.2 | 15.6 | 0.00 | 0.00 | 0.00 | 78 | 1012.1 |
| 20260501220859 | 53 | 192 | 10.4 | 14.8 | 0.00 | 0.00 | 0.00 | 78 | 1012.4 |
| 20260501220356 | 53 | 192 | 10.4 | 14.8 | 0.00 | 0.00 | 0.00 | 78 | 1012.2 |
| 20260501215852 | 53 | 190 | 10.4 | 14.8 | 0.00 | 0.00 | 0.00 | 78 | 1012.2 |
| 20260501215349 | 53 | 168 | 12.2 | 19.1 | 0.00 | 0.00 | 0.00 | 78 | 1012.3 |
| 20260501214844 | 53 | 191 | 11.3 | 16.5 | 0.00 | 0.00 | 0.00 | 78 | 1012.3 |
| 20260501214340 | 53 | 206 | 13.9 | 15.6 | 0.00 | 0.00 | 0.00 | 77 | 1012.3 |
| 20260501213836 | 53 | 179 | 11.3 | 16.5 | 0.00 | 0.00 | 0.00 | 78 | 1012.4 |
| 20260501213333 | 53 | 175 | 10.4 | 16.5 | 0.00 | 0.00 | 0.00 | 78 | 1012.2 |
| 20260501212828 | 53 | 197 | 10.4 | 14.8 | 0.00 | 0.00 | 0.00 | 77 | 1012.0 |
| 20260501212325 | 54 | 181 | 13.0 | 18.2 | 0.00 | 0.00 | 0.00 | 77 | 1012.3 |
| 20260501211823 | 53 | 197 | 10.4 | 15.6 | 0.00 | 0.00 | 0.00 | 76 | 1012.2 |
| 20260501211320 | 53 | 196 | 9.6 | 16.5 | 0.00 | 0.00 | 0.00 | 75 | 1012.2 |
| 20260501210817 | 54 | 183 | 9.6 | 19.1 | 0.00 | 0.00 | 0.00 | 75 | 1012.4 |
| 20260501210314 | 54 | 203 | 7.8 | 19.1 | 0.00 | 0.00 | 0.00 | 75 | 1012.4 |
| 20260501205810 | 54 | 184 | 10.4 | 18.2 | 0.00 | 0.00 | 0.00 | 74 | 1012.3 |
| 20260501205307 | 54 | 157 | 13.0 | 20.9 | 0.00 | 0.00 | 0.00 | 73 | 1012.1 |
| 20260501204804 | 54 | 202 | 15.6 | 19.1 | 0.00 | 0.00 | 0.00 | 71 | 1012.2 |
| 20260501204300 | 54 | 187 | 12.2 | 19.1 | 0.00 | 0.00 | 0.00 | 71 | 1012.2 |
| 20260501203756 | 54 | 159 | 13.0 | 20.9 | 0.00 | 0.00 | 0.00 | 69 | 1012.3 |
| 20260501203254 | 53 | 174 | 16.5 | 22.6 | 0.00 | 0.00 | 0.00 | 69 | 1012.3 |
| 20260501202751 | 54 | 194 | 14.8 | 19.1 | 0.00 | 0.00 | 0.00 | 68 | 1012.3 |
| 20260501202248 | 54 | 201 | 16.5 | 22.6 | 0.00 | 0.00 | 0.00 | 70 | 1012.1 |
| 20260501201745 | 54 | 229 | 12.2 | 23.5 | 0.00 | 0.00 | 0.00 | 70 | 1012.1 |
| 20260501201241 | 55 | 206 | 11.3 | 16.5 | 0.00 | 0.00 | 0.00 | 70 | 1012.1 |
| 20260501200738 | 55 | 226 | 12.2 | 16.5 | 0.00 | 0.00 | 0.00 | 68 | 1011.9 |
| 20260501200235 | 55 | 203 | 9.6 | 18.2 | 0.00 | 0.00 | 0.00 | 70 | 1012.1 |
| 20260501195733 | 55 | 205 | 10.4 | 14.8 | 0.00 | 0.00 | 0.00 | 67 | 1012.2 |
| 20260501195228 | 56 | 201 | 13.0 | 16.5 | 0.00 | 0.00 | 0.00 | 68 | 1012.2 |